This demonstration page uses our WeatherBlox Daily Observations layout. Learn more.

Left ArrowRight Arrow

31.31129, -92.44514

Hourly Observations for July 31, 2022

Temp ( °F °C ) Dew Point ( °F °C ) Humidity (%) Winds ( mph kmh ) Pressure ( in mb ) Visibility ( mi km ) Precip ( " mm )
12:53 am 00:53 Clear 77 25 73 22.8 88 88 SE 7 11 30.12 1020 10 16 0.00 0.00
1:53 am 01:53 Clear 76 24.4 73 22.8 91 91 SE 6 9 30.10 1019 10 16 0.00 0.00
2:53 am 02:53 Clear 75 23.9 72 22.2 90 90 S 3 6 30.09 1019 9 14 0.00 0.00
3:53 am 03:53 Clear 75 23.9 72 22.2 90 90 SSE 6 9 30.10 1019 10 16 0.00 0.00
4:53 am 04:53 Clear 75 23.9 72 22.2 90 90 SSE 5 7 30.10 1019 9 14 0.00 0.00
5:53 am 05:53 Clear 75 23.9 72 22.2 90 90 SSE 5 7 30.11 1020 8 13 0.00 0.00
6:53 am 06:53 Sunny 76 24.4 73 22.8 91 91 SSE 6 9 30.12 1020 7 11 0.00 0.00
7:53 am 07:53 Sunny 77 25 74 23.3 90 90 SSE 7 11 30.13 1020 8 13 0.00 0.00
8:53 am 08:53 Sunny 79 26.1 74 23.3 85 85 SSE 8 13 30.15 1021 9 14 0.00 0.00
9:53 am 09:53 Mostly Sunny 84 28.9 76 24.4 77 77 S 5 7 30.15 1021 10 16 0.00 0.00
10:26 am 10:26 Mostly Sunny 86 30 76 24.4 72 72 SSW 3 6 30.15 1021 10 16 0.00 0.00
10:53 am 10:53 Mostly Sunny 87 30.6 76 24.4 70 70 SE 5 7 30.15 1021 10 16 0.00 0.00
11:26 am 11:26 Mostly Cloudy 89 31.7 74 23.3 61 61 WSW 5 7 30.13 1020 10 16 0.00 0.00
11:42 am 11:42 Mostly Cloudy 88 31.1 73 22.8 61 61 SW 5 7 30.13 1020 10 16 0.00 0.00
11:53 am 11:53 Partly Cloudy 91 32.8 74 23.3 57 57 S 8 13 30.15 1021 10 16 0.00 0.00
12:53 pm 12:53 Sunny 91 32.8 73 22.8 56 56 VRB 3 6 30.13 1020 10 16 0.00 0.00
1:53 pm 13:53 Sunny 93 33.9 71 21.7 49 49 Calm 30.10 1019 10 16 0.00 0.00
2:53 pm 14:53 Partly Cloudy 95 35 70 21.1 44 44 ESE 6 9 30.09 1019 10 16 0.00 0.00
3:53 pm 15:53 Sunny 97 36.1 66 18.9 36 36 SE 10 17 30.08 1019 10 16 0.00 0.00
4:53 pm 16:53 Sunny 96 35.6 71 21.7 44 44 SSE 24 39 30.07 1018 10 16 0.00 0.00
5:53 pm 17:53 Sunny 93 33.9 74 23.3 54 54 SSE 14 22 30.07 1018 10 16 0.00 0.00
6:53 pm 18:53 Sunny 91 32.8 70 21.1 50 50 SSE 14 22 30.08 1019 10 16 0.00 0.00
7:53 pm 19:53 Sunny 86 30 70 21.1 59 59 SSE 12 19 30.09 1019 10 16 0.00 0.00
8:53 pm 20:53 Clear 82 27.8 71 21.7 69 69 SSE 8 13 30.09 1019 10 16 0.00 0.00
9:53 pm 21:53 Clear 82 27.8 72 22.2 72 72 SSE 9 15 30.09 1019 10 16 0.00 0.00
10:53 pm 22:53 Clear 80 26.7 72 22.2 76 76 SSE 6 9 30.10 1019 10 16 0.00 0.00
11:53 pm 23:53 Clear 78 25.6 73 22.8 85 85 S 6 9 30.10 1019 10 16 0.00 0.00

Powered by AerisWeather